Location: Kunchanapalle
(16.4623°N, 80.6176°E)
Time: 13:35:26
(UTC+00:00)

ATLAS 5 CENTAUR R/B - Pass Details

Date: 13 August 2020
Orbit: 533 x 1125 km, 63.4° (Epoch: 19 September)

Event Time Altitude Azimuth Distance (km) Brightness Sun altitude
Rises 14:11:03 0° 348° (NNW) 3,567 5.9 -16.3°
Reaches altitude 10° 14:13:40 10° 357° (N) 2,707 5.1 -16.9°
Maximum altitude 14:19:39 38° 64° (ENE) 1,538 3.2 -18.2°
Enters shadow 14:22:12 29° 105° (ESE) 1,853 3.4 -18.8°
